OPS 4682 DEB, 38460

Orbit data source: Space-Track

OPS 4682 DEB, 38460 is space debris in LEO originally from a launch on Sat, 03 Apr 1965 UTC launched from the Air Force Western Test Range (AFWTR). Debris objects in space refer to the collection of defunct objects orbiting the Earth. Examples of debris include non-operational satellites, rocket bodies, and fragments generated from explosions, collisions, or faulty payload assembly.

Loading next visibility...
Identifier
38460, 1965-027FR
Orbit
LEO
Country
Flag of USUS
Related business
Manufacturer
Unknown
Mission
Spacecraft
Bus & Motor
Unknown
Mass
Unknown
Launch date (UTC)
1965-04-03 (61 years ago)
Launch vehicle
Unknown
Launch site
Air Force Western Test Range (AFWTR)
Object type
Payload
Rocket body
Debris
Shape & HBR
Unknown shape, 0.1 m
Radar Cross Section
Small (<0.1 m²)

Expand to show TLE details & history
Last TLE update: 2 days ago

TLE from 2 days ago
0 OPS 4682 DEB
1 38460U 65027FR  26066.79414782  .00000467  00000-0  16332-2 0  9997
2 38460  90.2379   0.3242 0030511 115.6663 272.3378 12.95153226742485
Epoch: 2026-03-07T19:03Z
TLE epoch observation values (Epoch: 2026-03-07T19:03:34.371Z)
Latitude
27.69118°
Longitude
-91.20393°
Altitude
1,283.646 km
Speed
7.217 km/s
True Right ascension
00h 00m 47s
True Declination
27° 33' 35"
Sunlit
Object was in daylight at epoch
Visualization orbit readout
Latitude
Unknown
Longitude
Unknown
Altitude
Unknown
Speed
Unknown
Apparent Right ascension
Unknown
Apparent Declination
Unknown
Sunlit
N/A
Visualization observer readout
Local Sidereal Time
19:00:37
Azimuth
Unknown
Elevation
Unknown
Doppler factor
Unknown
Orbital elements
Apogee altitude
1,301.63 km
Perigee altitude
1,254.909 km
Semi-major axis
7,656.407 km
Eccentricity
0.00305
Inclination
90.2379°
RAAN
0.3242°
Arg. of periapsis
115.6663°
True anomaly
271.98841°
Mean anomaly
272.3378°
Eccentric anomaly
272.16311°
Mean motion
3.23971 °/min
Orbital period
111.12 mins
BSTAR
0.0016332
Loading maneuver chart data...
Computing Atmospheric mass density...
Loading historical data...
Loading historical data...
Loading historical data...
Loading historical data...
Loading historical data...
Loading historical data...
Loading historical data...

Documentation

Showing up to 5 results
|